Terug naar catalogus

DELTA 1 DEB

ActiefLEO
NORAD 10629·DEBRIS·🇺🇸 United States

Gelanceerd Jul 14, 1977 vanaf Cape Canaveral Space Force Station

Loading…

Volgende Passages (komende 24 uur)

TLE

VersSource: Space-Track

Epoch: Sep 14, 2026, 11:10 UTC

1 10629U 77065EY  26257.46564070  .00000048  00000-0  39518-5 0  9990
2 10629  29.8301  29.3910 0813633   2.6225 357.8273 12.80264651289490

Volg DELTA 1 DEB in realtime met AllMySat

Download on the App Store